[[{"header":{"parameterUnit":"m.s-1","parameterCategory":1,"la1":30.2991,"la2":30.254,"lo1":-89.0895,"lo2":-89.0444,"dy":0.0017,"dx":0.0017,"nx":28,"ny":28,"refTime":"2025-05-15T09:00:00:Z","depth":0,"parameterNumber":2,"parameterNumberName":"U-component_of_WINDS"},"data":[0,0,0,0,0,0,0,0,0,0,0,0,0,0,0,0,0,0,0,0,0,0,0,0,0,0,0,0,0,0,0,0,0,0,0,0,0,0,0,0,0,0,0,0,0,0,0,0,0,0,0,0,0,0,0,0,0,0,0.8392,0.8391,0,0.831,0.8309,0.8308,0.8207,0.8205,0.8204,0.8202,0.8122,0.8121,0.812,0,0,0,0,0,0,0,0,0,0,0,0,0,0.8462,0.8462,0.8392,0.8391,0.839,0.831,0.8309,0.8308,0.8207,0.8205,0.8203,0.8201,0.8122,0.8121,0.812,0,0,0,0,0,0,0,0,0,0,0,0,0,0.8411,0.8461,0.8392,0.833,0.8323,0.831,0.8309,0.8307,0.8208,0.8205,0.8203,0.82,0.8122,0.8121,0.812,0.8162,0,0,0.8117,0.8117,0,0,0,0,0,0,0,0,0.8414,0.8409,0.834,0.8334,0.8327,0.8266,0.8304,0.8259,0.8208,0.8252,0.8202,0.8199,0.8172,0.8167,0.8157,0.8158,0.8155,0.8117,0.8116,0.8116,0.8116,0,0,0,0,0,0,0,0.8418,0.8412,0.8359,0.8339,0.8331,0.8306,0.8296,0.8295,0.8226,0.8248,0.824,0.8232,0.8168,0.8158,0.8154,0.8154,0.8117,0.8116,0.8116,0.8115,0.8183,0.8185,0,0,0,0,0,0,0.8431,0.8415,0.8362,0.8357,0.8365,0.8307,0.8296,0.8288,0.8226,0.8214,0.8234,0.8227,0.8161,0.8155,0.8151,0.8194,0.8116,0.8115,0.8115,0.8181,0.8184,0.8186,0,0,0,0,0,0,0.8432,0.8427,0.8365,0.8384,0.8374,0.8308,0.83,0.8288,0.8277,0.8215,0.8203,0.8236,0.8158,0.8152,0.8159,0.819,0.8115,0.8114,0.8178,0.8182,0.8185,0.8282,0,0,0,0,0,0,0.8435,0.8428,0.8443,0.8385,0.8374,0.8375,0.8302,0.8288,0.8276,0.8266,0.8214,0.8203,0.8156,0.8161,0.8158,0.8187,0.8113,0.8175,0.818,0.8184,0.8276,0.8288,0.8299,0,0,0,0,0,0.8438,0.8475,0.8445,0.8439,0.8391,0.8377,0.837,0.8314,0.8279,0.8293,0.8253,0.8205,0.8187,0.8163,0.8159,0.8188,0.8173,0.8178,0.8183,0.827,0.8286,0.8299,0,0,0,0,0,0,0.854,0.8466,0.8432,0.8451,0.8421,0.836,0.8377,0.8333,0.8313,0.8305,0.8238,0.8227,0.8242,0.8215,0.819,0.8224,0.8173,0.8178,0.824,0.8254,0.8266,0.8272,0.8112,0,0,0,0,0,0.8565,0.8559,0.8495,0.8518,0.8505,0.8444,0.8435,0.8394,0.8361,0.8348,0.8308,0.8278,0.8265,0.8258,0.8244,0.8271,0.8258,0.8289,0.8301,0.8311,0.8316,0.8326,0.8339,0.8204,0.8204,0.8204,0,0,0.8616,0.8575,0.8576,0.8538,0.8509,0.8505,0.8434,0.8432,0.8428,0.8348,0.8351,0.8321,0.8283,0.83,0.8306,0.8279,0.835,0.8318,0.8326,0.8325,0.8333,0.8346,0.8357,0.8208,0.8207,0.8206,0,0,0.8706,0.8676,0.869,0.8663,0.862,0.8579,0.8583,0.8528,0.8504,0.8506,0.8445,0.844,0.842,0.8394,0.8379,0.8457,0.8412,0.8454,0.8516,0.8527,0.8537,0.8546,0.8573,0.8583,0.8459,0.846,0.846,0,0.8776,0.8766,0.8704,0.8705,0.869,0.8615,0.8629,0.8606,0.8562,0.8553,0.8523,0.8494,0.8464,0.8472,0.8491,0.8482,0.8483,0.846,0.8541,0.8549,0.8557,0.8581,0.8592,0.8465,0.8464,0.8464,0.8463,0,0.8852,0.8846,0.8863,0.8819,0.8806,0.8815,0.8754,0.8748,0.8708,0.867,0.8672,0.8632,0.8606,0.8606,0.8568,0.8609,0.8593,0.8553,0.85,0.8576,0.8598,0.8607,0.8473,0.8471,0.8469,0.8468,0,0,0.9005,0.8926,0.8933,0.8912,0.8858,0.8852,0.8857,0.883,0.8826,0.8797,0.8799,0.8782,0.8744,0.8726,0.8685,0.8695,0.8757,0.8653,0.8651,0.8672,0.8798,0.8827,0.8839,0.8727,0.8728,0.8729,0.88,0,0.9085,0.9086,0.903,0.9048,0.904,0.8969,0.8972,0.894,0.8904,0.8893,0.8854,0.8842,0.8794,0.8782,0.8789,0.8748,0.8781,0.8742,0.8727,0.8727,0.8737,0.8851,0.8882,0.8951,0.8809,0.881,0.8811,0,0.9178,0.9152,0.9169,0.9113,0.9107,0.9112,0.9081,0.9072,0.9034,0.9007,0.8986,0.8938,0.8937,0.8888,0.8886,0.8861,0.8851,0.883,0.8832,0.8827,0.8773,0.8849,0.8972,0.8982,0.8824,0.8823,0.8822,0,0.9286,0.9256,0.9261,0.9245,0.9181,0.9185,0.9158,0.9117,0.9104,0.9078,0.9069,0.9044,0.9031,0.9013,0.8958,0.8928,0.8963,0.8909,0.894,0.8941,0.895,0.895,0.9073,0.8946,0.8946,0.8946,0.8945,0,0.938,0.9392,0.9308,0.9312,0.9323,0.9258,0.9271,0.9238,0.9202,0.9197,0.9134,0.9131,0.9061,0.905,0.9008,0.9011,0.9006,0.8984,0.8973,0.8989,0.8992,0.8981,0.8975,0.8948,0.8948,0.8947,0.8947,0,0.9502,0.9447,0.9447,0.9385,0.937,0.9381,0.9327,0.9328,0.9287,0.9282,0.9277,0.9215,0.9198,0.9142,0.9113,0.9084,0.9101,0.908,0.9114,0.9106,0.9139,0.9136,0.9258,0.927,0.9138,0.9139,0.9141,0,0.9565,0.9572,0.9511,0.9502,0.9478,0.9466,0.9451,0.9388,0.9375,0.9331,0.9336,0.9315,0.9294,0.9271,0.9223,0.9199,0.9176,0.922,0.9172,0.9188,0.9175,0.9174,0.9174,0.9231,0.9233,0.9234,0.9235,0,0.9682,0.9654,0.9635,0.9606,0.9591,0.9566,0.9537,0.9534,0.9463,0.9452,0.9433,0.9417,0.9386,0.9364,0.9333,0.9305,0.9258,0.9251,0.9256,0.9272,0.9291,0.928,0.9141,0.9248,0.9247,0.9246,0.9245,0.9245,0.9775,0.9777,0.9734,0.9715,0.9686,0.966,0.9656,0.9615,0.9598,0.9566,0.953,0.9516,0.9475,0.9428,0.9404,0.9391,0.9366,0.9375,0.9376,0.9379,0.9386,0.9294,0.9386,0.9385,0.9385,0.9384,0.9384,0,0.9887,0.9855,0.9838,0.9799,0.9784,0.974,0.9705,0.9695,0.9683,0.9649,0.9629,0.9607,0.9586,0.9535,0.9509,0.9509,0.9486,0.9504,0.9503,0.9497,0.9411,0.9408,0.9522,0.9522,0.9522,0.9522,0.9522,0.9522,0.9943,0.9945,0.9911,0.9897,0.9865,0.9849,0.9833,0.9808,0.978,0.9758,0.974,0.9707,0.9666,0.9636,0.9614,0.96,0.9592,0.9617,0.9595,0.9516,0.9503,0.9491,0.9487,0.9616,0.9616,0.9681,0.9682,0.9683]},{"header":{"parameterUnit":"m.s-1","parameterCategory":1,"la1":30.2991,"la2":30.254,"lo1":-89.0895,"lo2":-89.0444,"dy":0.0017,"dx":0.0017,"nx":28,"ny":28,"refTime":"2025-05-15T09:00:00:Z","depth":0,"parameterNumber":3,"parameterNumberName":"V-component_of_WINDS"},"data":[0,0,0,0,0,0,0,0,0,0,0,0,0,0,0,0,0,0,0,0,0,0,0,0,0,0,0,0,0,0,0,0,0,0,0,0,0,0,0,0,0,0,0,0,0,0,0,0,0,0,0,0,0,0,0,0,0,0,5.512,5.512,0,5.5117,5.5117,5.5117,5.5035,5.5032,5.503,5.5028,5.5025,5.5027,5.5029,0,0,0,0,0,0,0,0,0,0,0,0,0,5.5053,5.5054,5.512,5.512,5.512,5.5117,5.5117,5.5117,5.5035,5.5032,5.503,5.5027,5.5024,5.5027,5.5029,0,0,0,0,0,0,0,0,0,0,0,0,0,5.5069,5.5055,5.512,5.5079,5.5075,5.5118,5.5117,5.5117,5.5036,5.5032,5.5029,5.5026,5.5024,5.5026,5.5029,5.5111,0,0,5.5038,5.5039,0,0,0,0,0,0,0,0,5.5068,5.5072,5.5085,5.5082,5.5077,5.5073,5.5092,5.5115,5.5036,5.505,5.5028,5.5025,5.5044,5.5045,5.5051,5.5111,5.5111,5.5038,5.504,5.5041,5.5042,0,0,0,0,0,0,0,5.5067,5.5071,5.5119,5.5085,5.5081,5.506,5.5059,5.5096,5.5065,5.5049,5.5043,5.5044,5.5041,5.5049,5.505,5.5111,5.5038,5.5041,5.5043,5.5044,5.5237,5.5241,0,0,0,0,0,0,5.5072,5.5071,5.5119,5.5119,5.5065,5.5064,5.5062,5.5078,5.5064,5.5059,5.5047,5.504,5.5045,5.5047,5.505,5.5145,5.5041,5.5044,5.5046,5.5234,5.5238,5.5242,0,0,0,0,0,0,5.5071,5.5077,5.5119,5.5093,5.5097,5.5068,5.5086,5.5079,5.5087,5.5063,5.5056,5.506,5.5043,5.5046,5.5097,5.5143,5.5045,5.5048,5.523,5.5235,5.524,5.5335,0,0,0,0,0,0,5.5069,5.5077,5.5108,5.5095,5.5099,5.5166,5.5089,5.5082,5.5092,5.5083,5.5074,5.5069,5.5041,5.5093,5.5099,5.5145,5.505,5.5225,5.5232,5.5238,5.5327,5.5343,5.5356,0,0,0,0,0,5.5067,5.5135,5.511,5.5117,5.5137,5.5169,5.5171,5.5137,5.5096,5.5127,5.5111,5.5069,5.5137,5.5099,5.5105,5.5153,5.5222,5.523,5.5238,5.5321,5.534,5.5355,0,0,0,0,0,0,5.5155,5.5133,5.5105,5.5171,5.5172,5.5155,5.5193,5.5158,5.5172,5.5163,5.512,5.5119,5.5176,5.5169,5.5127,5.5231,5.5172,5.5182,5.5233,5.5251,5.5265,5.5265,5.5052,0,0,0,0,0,5.5182,5.521,5.5189,5.5249,5.5251,5.5222,5.5235,5.5209,5.5209,5.5209,5.5197,5.5199,5.522,5.5235,5.5254,5.5326,5.5323,5.5362,5.5377,5.5388,5.5397,5.5434,5.5452,5.5267,5.5267,5.5267,0,0,5.5238,5.5229,5.525,5.5266,5.5265,5.5294,5.5223,5.5258,5.5279,5.5214,5.5261,5.5252,5.5251,5.5313,5.534,5.531,5.5447,5.5398,5.5408,5.541,5.5444,5.5461,5.5477,5.5272,5.5271,5.527,0,0,5.5355,5.5352,5.5401,5.5401,5.5399,5.5379,5.5391,5.5379,5.5371,5.5418,5.5369,5.5394,5.5432,5.5433,5.5439,5.5556,5.5518,5.5564,5.5637,5.5674,5.5689,5.5701,5.5743,5.5759,5.5572,5.5573,5.5573,0,5.5425,5.5468,5.5431,5.5468,5.5477,5.5419,5.5469,5.547,5.5475,5.5482,5.5448,5.5495,5.549,5.5551,5.558,5.5586,5.5598,5.5564,5.569,5.5702,5.5713,5.5753,5.5768,5.5578,5.5577,5.5577,5.5576,0,5.5553,5.5584,5.5624,5.563,5.5643,5.5687,5.5656,5.5673,5.5646,5.563,5.5677,5.567,5.5685,5.5698,5.5672,5.5756,5.5737,5.5697,5.5637,5.5737,5.5773,5.5788,5.5586,5.5584,5.5582,5.5581,0,0,5.5726,5.571,5.5726,5.5728,5.5722,5.5744,5.5785,5.58,5.5816,5.5822,5.5854,5.5888,5.5851,5.5858,5.5831,5.5863,5.5957,5.5819,5.5819,5.5845,5.6048,5.6078,5.6096,5.5931,5.5934,5.5936,5.6048,0,5.5839,5.5907,5.5875,5.5947,5.5975,5.592,5.5955,5.5956,5.5942,5.5963,5.5947,5.5971,5.5921,5.5925,5.5955,5.5939,5.5997,5.5931,5.5961,5.5963,5.5963,5.6115,5.6146,5.6252,5.6062,5.6064,5.6066,0,5.5979,5.5991,5.6066,5.6054,5.6065,5.6097,5.6108,5.6129,5.6128,5.6116,5.6123,5.6089,5.6127,5.6068,5.6121,5.6077,5.6087,5.6082,5.6085,5.6086,5.602,5.612,5.6285,5.6301,5.6088,5.6086,5.6085,0,5.6097,5.6131,5.618,5.6183,5.6171,5.6195,5.6191,5.6187,5.6198,5.6208,5.6215,5.623,5.6238,5.625,5.622,5.618,5.6277,5.6215,5.6267,5.6268,5.629,5.6289,5.6459,5.6298,5.6297,5.6297,5.6297,0,5.6226,5.6274,5.6232,5.6263,5.6315,5.6277,5.6329,5.6319,5.6316,5.6343,5.6297,5.6324,5.6283,5.6306,5.6283,5.633,5.6334,5.6324,5.6318,5.6328,5.6329,5.6334,5.6326,5.6301,5.63,5.63,5.6299,0,5.6366,5.634,5.639,5.6375,5.6372,5.6411,5.6397,5.6425,5.6407,5.6442,5.6448,5.6422,5.6446,5.6417,5.6439,5.6423,5.6487,5.647,5.6488,5.6482,5.6536,5.6531,5.6715,5.6737,5.6562,5.6564,5.6565,0,5.645,5.6486,5.6474,5.6489,5.6488,5.6513,5.6524,5.6488,5.6502,5.6503,5.653,5.655,5.6564,5.6605,5.6587,5.6604,5.6586,5.6649,5.6588,5.6598,5.6587,5.6585,5.6588,5.6662,5.6664,5.6666,5.6667,0,5.6602,5.6587,5.6605,5.6619,5.6634,5.6643,5.6649,5.6663,5.6626,5.6643,5.6667,5.6679,5.6701,5.6721,5.6732,5.6728,5.6692,5.6686,5.6699,5.671,5.6719,5.6715,5.6521,5.6682,5.6681,5.668,5.6679,5.6678,5.6716,5.6745,5.6741,5.6763,5.6763,5.6769,5.6794,5.678,5.6799,5.6814,5.6792,5.6822,5.682,5.6831,5.6831,5.6854,5.6827,5.6846,5.685,5.6855,5.6863,5.6716,5.6856,5.6855,5.6855,5.6855,5.6854,0,5.6865,5.686,5.688,5.6889,5.6906,5.687,5.6875,5.6891,5.6918,5.6919,5.6934,5.6962,5.6981,5.6965,5.6981,5.7003,5.6987,5.7008,5.7006,5.7006,5.6887,5.6874,5.7021,5.7021,5.7021,5.7021,5.7021,5.7021,5.6944,5.6991,5.6976,5.7023,5.7017,5.7046,5.7052,5.7057,5.7057,5.709,5.7106,5.7096,5.709,5.7105,5.7122,5.7117,5.7125,5.7153,5.7142,5.7031,5.7014,5.6999,5.6986,5.7155,5.7155,5.7258,5.7259,5.726]}]]